This is the latest recevied weather packets stored in our database for station/object KC1TLF-15. If no packets are shown the sender has not sent any weather packets the latest 10 day(s).
| Time | Temp. | Humidity | Pressure | Rain* | Wind** | Luminosity | Snow |
|---|---|---|---|---|---|---|---|
| 1777290615 | 8.33° C | 70% | 1033 hPa | 0 mm | 0 m/s | - | - |
| 1777290015 | 7.78° C | 72% | 1032.7 hPa | 0 mm | 0 m/s | - | - |
| 1777289413 | 6.67° C | 75% | 1033 hPa | 0 mm | 0 m/s | - | - |
| 1777288815 | 6.67° C | 78% | 1032.6 hPa | 0 mm | 0 m/s | - | - |
| 1777288214 | 6.67° C | 78% | 1032.5 hPa | 0 mm | 0 m/s | - | - |
| 1777287619 | 6.11° C | 78% | 1032.6 hPa | 0 mm | 0 m/s | - | - |
| 1777287020 | 5° C | 84% | 1032.5 hPa | 0 mm | 0 m/s | - | - |
| 1777286414 | 4.44° C | 87% | 1032.4 hPa | 0 mm | 0 m/s | - | - |
| 1777285814 | 2.78° C | 93% | 1032.3 hPa | 0 mm | 0 m/s | - | - |
| 1777285214 | 2.22° C | 94% | 1032.1 hPa | 0 mm | 0 m/s | - | - |
| 1777284614 | 2.22° C | 94% | 1031.9 hPa | 0 mm | 0 m/s | - | - |
| 1777284014 | 2.22° C | 93% | 1031.7 hPa | 0 mm | 0 m/s | - | - |
| 1777283413 | 2.22° C | 93% | 1031.7 hPa | 0 mm | 0 m/s | - | - |
| 1777282815 | 2.22° C | 93% | 1031.6 hPa | 0 mm | 0 m/s | - | - |
| 1777282215 | 2.22° C | 93% | 1031.4 hPa | 0 mm | 0 m/s | - | - |
| 1777281615 | 2.22° C | 92% | 1031.1 hPa | 0 mm | 0 m/s | - | - |
| 1777281014 | 2.22° C | 93% | 1031.2 hPa | 0 mm | 0 m/s | 0 W/m² | - |
| 1777280413 | 2.22° C | 94% | 1031.1 hPa | 0 mm | 0 m/s | 0 W/m² | - |
| 1777279814 | 2.22° C | 93% | 1030.8 hPa | 0 mm | 0 m/s | 0 W/m² | - |
| 1777279213 | 2.78° C | 92% | 1030.9 hPa | 0 mm | 0 m/s | 0 W/m² | - |
| 1777278614 | 2.78° C | 91% | 1030.7 hPa | 0 mm | 0 m/s | 0 W/m² | - |
| 1777278014 | 2.78° C | 90% | 1030.8 hPa | 0 mm | 0 m/s | 0 W/m² | - |
| 1777277415 | 2.78° C | 91% | 1030.9 hPa | 0 mm | 0 m/s | 0 W/m² | - |
| 1777276815 | 2.78° C | 90% | 1030.6 hPa | 0 mm | 0 m/s | 0 W/m² | - |
| 1777276214 | 2.78° C | 90% | 1030.5 hPa | 0 mm | 0 m/s | 0 W/m² | - |
* Rain latest hour (hover to see other rain measurements)
** Current wind speed in m/s (hover to see current wind gust speed)